Weather History for Burley, ID

Change the Weather History Date:

Thursday, April 4, 2013

  Actual Average Record
Temperature  
Mean Temperature 58 °F 44 °F  
Max Temperature 74 °F 56 °F 77 °F (2000)
Min Temperature 42 °F 32 °F 18 °F (1950)
Degree Days  
Heating Degree Days 7 21  
Month to date heating degree days 51 87  
Since 1 July heating degree days 5541 5906  
Cooling Degree Days 0 0  
Month to date cooling degree days 0 0  
Year to date cooling degree days 0 0  
Growing Degree Days 8 (Base 50)    
Moisture  
Dew Point 37 °F    
Average Humidity 50    
Maximum Humidity 76    
Minimum Humidity 23    
Precipitation  
Precipitation 0.04 in 0.03 in 0.20 in (1993)
Month to date precipitation 0.09 0.11  
Year to date precipitation 1.04 2.82  
Sea Level Pressure  
Sea Level Pressure 29.90 in    
Wind  
Wind Speed 10 mph (South)    
Max Wind Speed 26 mph    
Max Gust Speed 33 mph    
Visibility 10 miles    
Events Rain    
T = Trace of Precipitation, MM = Missing Value Source: NWS Daily Summary

Daily Weather History Graph

Daily Weather History Graph

Search for Another Location

Airport:

Trip Planner

Search our weather history database for the weather conditions in past years. The results will help you decide how hot, cold, wet, or windy it might be!

Date:

Astronomy

Apr. 04, 2013 Rise Set
Actual Time 7:11 AM MDT 8:04 PM MDT
Civil Twilight 6:43 AM MDT 8:33 PM MDT
Nautical Twilight 6:09 AM MDT 9:07 PM MDT
Astronomical Twilight 5:33 AM MDT 9:43 PM MDT
Moon 3:48 AM MDT (4/4) 2:20 PM MDT (4/4)
Length of Visible Light 13h 50m
Length of Day
12h 53m
Waning Crescent, 33% of the Moon is Illuminated
Apr 4
Waning Crescent
Apr 10
New
Apr 18
First Quarter
Apr 25
Full
May 2
Last Quarter

Hourly Weather History & Observations

Time (MDT) Temp. Windchill Dew Point Humidity Pressure Visibility Wind Dir Wind Speed Gust Speed Precip Events Conditions
12:53 AM 46.9 °F - 37.9 °F 71% 30.01 in 10.0 mi SE 3.5 mph - N/A   Clear
1:53 AM 46.9 °F - 37.0 °F 68% 30.00 in 10.0 mi SSE 5.8 mph - N/A   Clear
2:53 AM 50.0 °F - 37.0 °F 61% 29.97 in 10.0 mi South 10.4 mph - N/A   Clear
3:53 AM 46.0 °F 42.5 °F 37.0 °F 71% 29.98 in 10.0 mi East 6.9 mph - N/A   Clear
4:53 AM 50.0 °F - 36.0 °F 59% 29.96 in 10.0 mi South 9.2 mph - N/A   Clear
5:53 AM 45.0 °F 42.6 °F 36.0 °F 71% 29.96 in 10.0 mi East 4.6 mph - N/A   Clear
6:53 AM 45.0 °F 43.5 °F 36.0 °F 71% 29.96 in 10.0 mi SSE 3.5 mph - N/A   Clear
7:53 AM 44.1 °F - 37.0 °F 76% 29.97 in 10.0 mi Calm Calm - N/A   Clear
8:53 AM 48.0 °F - 39.9 °F 74% 29.96 in 10.0 mi Calm Calm - N/A   Clear
9:53 AM 57.9 °F - 37.9 °F 47% 29.94 in 10.0 mi SE 5.8 mph - N/A   Clear
10:53 AM 63.0 °F - 37.9 °F 40% 29.93 in 10.0 mi SSE 9.2 mph - N/A   Clear
11:53 AM 68.0 °F - 39.0 °F 35% 29.91 in 10.0 mi South 17.3 mph 20.7 mph N/A   Clear
12:53 PM 66.9 °F - 34.0 °F 30% 29.88 in 10.0 mi SSW 19.6 mph 28.8 mph N/A   Partly Cloudy
1:53 PM 73.0 °F - 35.1 °F 25% 29.83 in 10.0 mi SSW 25.3 mph 29.9 mph N/A   Clear
2:53 PM 72.0 °F - 34.0 °F 25% 29.81 in 10.0 mi SSW 24.2 mph 31.1 mph N/A   Clear
3:53 PM 69.1 °F - 30.0 °F 23% 29.80 in 10.0 mi WSW 9.2 mph - N/A   Mostly Cloudy
4:53 PM 69.1 °F - 34.0 °F 27% 29.78 in 10.0 mi SW 10.4 mph - N/A   Scattered Clouds
5:53 PM 66.9 °F - 30.9 °F 26% 29.80 in 10.0 mi WNW 15.0 mph 21.9 mph 0.00 in Rain Light Rain
6:53 PM 64.9 °F - 34.0 °F 32% 29.81 in 10.0 mi WSW 10.4 mph - 0.00 in   Overcast
7:53 PM 60.1 °F - 37.9 °F 44% 29.85 in 10.0 mi Variable 5.8 mph 20.7 mph 0.00 in Rain Light Rain
8:53 PM 57.9 °F - 39.0 °F 49% 29.86 in 10.0 mi SSW 9.2 mph - 0.00 in   Overcast
9:53 PM 54.0 °F - 43.0 °F 66% 29.86 in 10.0 mi South 9.2 mph - 0.00 in Rain Light Rain
10:53 PM 53.1 °F - 45.0 °F 74% 29.84 in 10.0 mi SW 6.9 mph - 0.01 in   Overcast
11:53 PM 54.0 °F - 41.0 °F 62% 29.83 in 10.0 mi SW 19.6 mph 26.5 mph 0.00 in Rain Light Rain